FALCON 9 R/B, 43563

Orbit data source: Space-Track

FALCON 9 R/B, 43563 is space debris in HEO originally from a launch on Sun, 22 Jul 2018 UTC launched from the Air Force Eastern Test Range (AFETR). Debris objects in space refer to the collection of defunct objects orbiting the Earth. Examples of debris include non-operational satellites, rocket bodies, and fragments generated from explosions, collisions, or faulty payload assembly.

Loading next visibility...
FALCON 9 R/B details
Identifier
43563, 2018-059B
Orbit
HEO
Last TLE update14 hours ago
Origin
Flag of USSpaceX (US)
ManufacturerSpaceX
MissionSpacecraft
Bus & MotorF9ST2, Unknown motor
Mass~4,000 kg wet, ~4,000 kg dry
Launch date (UTC)
2018-07-22 (6 years ago)
Launch vehicleUnknown
Launch site
Air Force Eastern Test Range (AFETR)
Object type
Payload
Rocket body
Debris
Shape & HBRCyl, 15.53 m
Radar Cross Section39.980 m², Large (>1 m²)

Expand to show TLE details & history

TLE from 14 hours ago
0 FALCON 9 R/B
1 43563U 18059B   24338.85856358  .00087796  00000-0  14645-2 0  9991
2 43563  27.0082 278.2095 4559255 314.7763  16.0948  6.52450241118570
Epoch: 2024-12-03T20:36Z
Definitive object data (Epoch: 2024-12-03T20:36:19.893Z)
Latitude-0.00005°
Longitude-104.03552°
Altitude876.781 km
Speed8.772 km/s
True Right ascension18h 32m 50s
True Declination0° 00' 00"
Sunlit
Object was in daylight at TLE epoch
Visualization TLE readout
Latitude-3.10845°
Longitude81.20045°
Altitude7,106.376 km
Speed5.116 km/s
Apparent Right ascension06h 10m 22s
Apparent Declination-27° 59' 11"
Sunlit
Object is in daylight
Visualization observer readout
Local Sidereal Time08:15:01
Azimuth208.41° SW
Elevation16.168°
Doppler factor1
Orbital elements
Apogee altitude11,240.448 km
Perigee altitude205.87 km
Semi-major axis12,101.296 km
Eccentricity0.4559255
Inclination27.0082°
RAAN278.2095°
Arg. of periapsis314.7763°
True anomaly45.26805°
Mean anomaly16.0948°
Eccentric anomaly28.59913°
Mean motion1.6304 °/min
BSTAR0.0014645
Orbital period220.8 mins
Loading maneuver chart data...
Loading historical data...
Loading historical data...
Loading historical data...
Loading historical data...
Loading historical data...
Loading historical data...
Loading historical data...
Other satellites on launch #59 in the year 2018 (2018-07-22 UTC)

FALCON 9 R/B Visibility forecast

Observer location: undefined°, undefined

Span
Click to sort rows by Start time (UTC) header in descending order
Start Az.
Max El. time (UTC)
Max El. Az.
Max El.
End time (UTC)
End Az.
8 mins2024-12-04 10:20:35.703Z208.381° SW2024-12-04 10:20:35.703Z208.381° SW15.526°2024-12-04 10:28:35.703Z197.35° SSW
51 mins2024-12-04 22:28:35.703Z186.813° SSW2024-12-04 22:38:35.703Z132.953° SE29.446°2024-12-04 23:19:35.703Z83.113° E
123 mins2024-12-05 02:18:35.703Z251.083° W2024-12-05 02:47:35.703Z176.356° S42.637°2024-12-05 04:21:35.703Z113.622° SE
128 mins2024-12-05 06:22:35.703Z274.429° WNW2024-12-05 07:26:35.703Z223.824° SW35.666°2024-12-05 08:30:35.703Z161.685° S
|